Location: Anjeux
(47.8815°N, 6.2076°E)
Time: 10:31:57
(UTC+00:00)

AO-27 - Pass Details

Date: 11 December 2021
Orbit: 784 x 798 km, 98.9° (Epoch: 24 January)

Event Time Altitude Azimuth Distance (km) Brightness Sun altitude
Rises 16:08:54 0° 107° (ESE) 3,299 10.5 -4.6°
Reaches altitude 10° 16:12:21 10° 83° (E) 2,375 9.6 -5.1°
Maximum altitude 16:14:56 14° 53° (NE) 2,113 9.2 -5.5°
Drops below altitude 10° 16:17:30 10° 23° (NNE) 2,382 9.7 -5.9°
Sets 16:20:58 0° 359° (N) 3,316 10.6 -6.4°
